logo
Rechercher aéroport 
image banner adimage banner adimage banner ad
image banner ad

CA26 - Hall Of Justice

Situé à San Francisco, United States

ICAO - CA26, IATA -

Données fournies par Airmate  

Information générale

Coordonnées: N37°46'30" W122°24'15"
Élévation : 118 feet MSL.
Variation magnétique : 16° East
Voir autres Aéroports à California

Données opérationnelles

Special qualification required
Heure actuelle UTC:
Heure actuelle locale:
Météo à : KOAK - Metropolitan Oakland Intl ( 17 km )
METAR: KOAK 281253Z 28008KT 10SM FEW008 BKN010 BKN012 15/13 A3001 RMK AO2 SLP162 T01500128
TAF: KOAK 281140Z 2812/2918 27008KT P6SM FEW008 BKN010 FM281700 27007KT P6SM FEW009 FEW012 SCT250 FM282100 28012KT P6SM SCT250 FM290500 28007KT P6SM FEW010 SCT250 FM290900 27005KT P6SM FEW008 BKN015 FM291700 25004KT P6SM FEW010 FEW015
Voir NOTAMs / SUP AIP / TFR affectant cet aéroport [VIEW]
Fréquences de communication: [VIEW]

Pistes:

Coordonnées de l'aéroport

Adresse: San Francisco United States

Vue satellite de CA26